Regional Weather Roundup
Issued by NWS Grand Forks, ND

Home | Current Version | Previous Version | Graphics & Text | Print | Product List | Glossary On
Versions: 1 2 3 4 5 6 7 8 9 10 11 12 13 14 15 16 17 18 19 20 21 22 23 24 25 26 27 28 29 30 31 32 33 34 35 36 37 38 39 40 41 42 43 44 45 46 47 48 49 50
597
ASUS43 KFGF 180831
RWRFGF
PRAIRIE TO PINES  WEATHER ROUNDUP
NATIONAL WEATHER SERVICE EASTERN NORTH DAKOTA/GRAND FORKS ND
200 AM CST WED JAN 18 2017

 **SATELLITE DATA USED TO AUGMENT SKY COVER AT AUTOMATED STATIONS**
 *****  WEATHER ACROSS EASTERN NORTH DAKOTA  *****

CITY           SKY/WX    TMP DP  RH WIND       PRES   REMARKS
GRAND FORKS    FAIR      23  16  74 S12       29.66F WCI  12
GRAND FRKS AFB FAIR      27  19  72 S13       29.66S WCI  16
DEVILS LAKE    FAIR      28  22  78 SW7       29.65R WCI  21
FARGO          FAIR      23  18  81 S12       29.76S WCI  12
WAHPETON ARPT  FAIR      19  16  86 SE7       29.80S WCI  10
$$

 ***** WEATHER ACROSS CENTRAL AND WESTERN NORTH DAKOTA  *****

CITY           SKY/WX    TMP DP  RH WIND       PRES   REMARKS
BISMARCK       FAIR      19  14  81 SE5       29.74F WCI  12
MINOT          FAIR      38  28  67 SW17      29.64S
JAMESTOWN      FAIR      28  20  71 SW12      29.70F WCI  18
MINOT AFB      FAIR      35  27  72 W10       29.63S
GARRISON         N/A     27  21  78 SW6       29.68F WCI  20
WILLISTON      FAIR      32  23  69 SW17      29.70R WCI  21
DICKINSON      FAIR      33  22  63 W10       29.72F WCI  25
HETTINGER      FAIR      27  18  69 NW7       29.81S WCI  19
$$

 *****  OTHER AIRPORT OBSERVATIONS IN OUR AREA  *****

CITY           SKY/WX    TMP DP  RH WIND       PRES   REMARKS
WALHALLA       NOT AVBL
GRAFTON AIRPOR FAIR      28  21  74 SW14      29.67R WCI  17
VALLEY CITY AR FAIR      19  18  93 SW14      29.72F WCI   6
CANDO          NOT AVBL
CAVALIER APRT    N/A     28  23  80 SW12      29.62S WCI  18
GWINNER        FAIR      27  21  80 SW20      29.78F WCI  13
ROLLA            N/A    N/A N/A N/A MISG        N/A
 ***** THE ABOVE OBSERVATIONS ARE NON NWS ARE NOT QUALITY
       CONTROLLED AND MAY MIS-REPORT RAIN FOR SNOW...
$$

  *****  WEATHER ACROSS NORTHERN MINNESOTA  *****

CITY           SKY/WX    TMP DP  RH WIND       PRES   REMARKS
FLAG ISLAND    FAIR      21  18  86 S8        29.61F WCI  12
WARROAD        FAIR      23  18  80 SW12      29.63S WCI  12
ROSEAU         FAIR      23  18  80 S14       29.62F WCI  11
HALLOCK        FAIR      19  16  86 S14       29.63R WCI   6
THF RVR FALLS  FAIR      22  17  81 S17       29.68F WCI   8
BAUDETTE       FAIR      26  17  68 SW10      29.65S WCI  16
WASKISH        FAIR      28  19  69 SW8       29.68R WCI  20
CROOKSTON      FAIR      21  18  86 S16       29.70F WCI   7
STEPHEN NDAWN    N/A     19  16  86 S17         N/A  WCI   4
GREENBUSH NDAW   N/A     21  18  86 S12         N/A  WCI   9
$$
  *****  WEATHER ACROSS CENTRAL AND WEST MINNESOTA  *****

CITY           SKY/WX    TMP DP  RH WIND       PRES   REMARKS
FOSSTON        FAIR      23  18  80 S18       29.72S WCI   9
BEMIDJI        FAIR      27  18  71 SW6       29.71F WCI  20
PARK RAPIDS    FAIR      20  13  74 S8        29.76S WCI  10
ELBOW LAKE     FAIR      20  18  91 S16       29.82F FOG     WCI   6
WADENA         FAIR      21  18  86 S10       29.79S WCI  10
DETROIT LAKES  FAIR      28  23  80 SW12      29.77F WCI  18
MOORHEAD       FAIR      21  16  79 S10       29.79R WCI  10
FERGUS FALLS   FAIR      21  18  86 S13       29.85S WCI   9
MORRIS MN      FAIR      16  16 100 SE12      29.84S WCI   3
STAPLES        FAIR      18  16  93 S8        29.81S WCI   7
$$
  *****  WEATHER ELSEWHERE ACROSS MINNESOTA  *****

CITY           SKY/WX    TMP DP  RH WIND       PRES   REMARKS
DULUTH         FAIR      25  23  92 SW14      29.80S WCI  13
INTRNTL FALLS  FAIR      28  18  66 SW8       29.67R WCI  20
ELY            FAIR      25  18  74 SW9G17    29.73F WCI  15
CLOQUET        FAIR      25  21  86 SW10      29.83R WCI  15
WHEATON        FAIR      28  27  93 S9        29.84S WCI  20
BRAINERD       FAIR      19  17  92 S10       29.84S FOG     WCI   7
HIBBING        FAIR      19  16  88 S7        29.77F WCI  10
ALEXANDRIA     FAIR      22  19  89 SW14      29.84F WCI   9
SAINT CLOUD    FAIR      19  19 100 S7        29.90F FOG     WCI  10
MINNEAPOLIS    FAIR      29  25  85 S8        29.97F WCI  21
$$

  *****  WEATHER ACROSS SOUTH DAKOTA  *****

CITY           SKY/WX    TMP DP  RH WIND       PRES   REMARKS
SIOUX FALLS    FAIR      30  28  92 S14       29.93F WCI  19
BROOKINGS      FAIR      24  22  91 SW9       29.88S WCI  14
WATERTOWN      FAIR      19  18  95 S9        29.86S WCI   8
HURON          FAIR      22  21  96 SE6       29.89R WCI  14
SISSETON         N/A     34  25  69 W16       29.78F WCI  24
ABERDEEN       FAIR      17  12  80 S10       29.85S WCI   5
MITCHELL       FAIR      21  21 100 CALM      29.91R
PIERRE         FAIR      19  15  84 CALM      29.86S
MOBRIDGE       FAIR      16   9  74 SE8       29.79S WCI   5
RAPID CITY     FAIR      31  19  61 NW7       29.85S WCI  24
$$

  *****  SOME WEATHER IN NEARBY STATES *****

CITY           SKY/WX    TMP DP  RH WIND       PRES   REMARKS
GLASGOW MT     FAIR      28  23  81 SE12      29.67F WCI  18
GREAT FALLS MT FAIR      39  26  59 S10       29.68S
CHEYENNE WY    FAIR      26  11  52 W13       29.97F WCI  15
SCOTTSBLUFF NE FAIR      24  15  68 NW3       29.96F
OMAHA NE       FAIR      26  21  81 SE9       30.10F WCI  17
DES MOINES IA  CLOUDY    32  30  92 SW9       30.12R WCI  24
DAVENPORT IA   CLOUDY    33  32  96 W10       30.11R FOG     WCI  25
CHICAGO IL     DRIZZLE   34  33  96 W8        30.03R FOG
EAU CLAIRE WI  CLOUDY    31  30  96 S9        29.97F WCI  23
LA CROSSE WI   CLOUDY    35  32  88 SW6       30.04R
$$

  *****  SOME NATIONAL WEATHER *****

CITY           SKY/WX    TMP DP  RH WIND       PRES   REMARKS
LA GUARDIA NY  LGT RAIN  40  38  93 NE14      29.90F FOG
RALEIGH NC     CLOUDY    61  56  83 SW10      29.95F
ATLANTA GA     FAIR      64  59  83 W10       30.11S
NEW ORLEANS LA FOG       67  67 100 SE8       30.12F VSB 1/4
OKLAHOMA CITY  MOCLDY    43  37  79 S8        30.15S
ALBUQUERQUE NM MOCLDY    37  33  85 E3        30.14S
SALT LAKE CITY FAIR      23  18  81 N5        30.22F WCI  17
LOS ANGELES CA FAIR      54  52  93 W6        30.16F
BOISE ID       MOCLDY     9   4  80 CALM      30.14F HAZE
SEATTLE WA     LGT RAIN  47  47 100 SE10      29.52F
$$

*** WEATHER ACROSS MANITOBA...SASKATCHEWAN AND ONTARIO ***
                ***ONTARIO***

CITY           SKY/WX    TMP DP  RH WIND       PRES   REMARKS
GERALDTON      CLOUDY    30  27  86 SW14      29.65F WCI  20
THUNDER BAY    PTCLDY    10  10 100 W3        29.75F FOG
SIOUX LOOKOUT  MOCLDY    27  19  74 SW7       29.58F WCI  19
TORONTO        DRZL/FOG  34  32  93 W3        29.83R VSB 1/4
BIG TROUT LK   CLEAR     28  25  86 W13       29.35R WCI  18
PICKLE LAKE    NOT AVBL
DRYDEN         MOCLDY    25  19  80 SW9       29.59S WCI  15
KENORA         PTCLDY    21  16  79 S10       29.59R WCI  10
$$
                *** MANITOBA***

CITY           SKY/WX    TMP DP  RH WIND       PRES   REMARKS
BRANDON        CLEAR     23  21  93 W13       29.58S WCI  11
DAUPHIN        MOCLDY    34  28  80 SW12G17   29.53R
ISLAND LAKE    CLOUDY    28  21  74 W8        29.42R WCI  20
PILOT MOUND      N/A     18  16  93 SW9         N/A  WCI   6
THE PAS        CLOUDY    32  27  80 S2        29.45R
THOMPSON       CLOUDY    32  30  93 W6        29.39R
WINNIPEG       MOCLDY    21  18  86 S13       29.55F WCI   9
LYNN LAKE      CLEAR     27  27 100 SW3       29.38R
CHURCHILL      LGT SNOW  12  10  92 NW23G29   29.32R DRFTSNOWWCI  -7
GILLAM         CLOUDY    36  32  87 NW12      29.33R
$$
                ***SASKATCHEWAN***

CITY           SKY/WX    TMP DP  RH WIND       PRES   REMARKS
ESTEVAN        PTCLDY    28  23  80 SW13      29.62R WCI  18
KINDERSLEY     PTCLDY    36  30  80 S14       29.42F
LLOYDMINSTER   MOCLDY    32  28  86 S16       29.29F WCI  21
PRINCE ALBERT  CLEAR     25  23  93 VRB2      29.40F FOG
REGINA         PTCLDY    34  28  80 W6        29.55S
YORKTON        CLEAR     27  25  93 S10       29.52R WCI  17
N. BATTLEFORD  CLEAR     30  28  93 S7        29.38F WCI  23
LA RONGE       PTCLDY    23  21  93 CALM      29.37F
SASKATOON      MOCLDY    32  28  86 S10       29.43F WCI  24
SWIFT CURRENT  PTCLDY    41  32  70 SW20G25   29.48F
$$
NOTE: THESE ARE AUTOMATED STATIONS WITH LIMITED QUALITY CONTROL
      "FAIR" INDICATES FEW OR NO CLOUDS BELOW 12,000 FEET WITH NO
      SIGNIFICANT WEATHER AND/OR OBSTRUCTIONS TO VISIBILITY.
      SKY/WX - SKY CONDITION AND SIGNIFICANT WEATHER.
      TMP - AIR TEMPERATURE.    DP   - DEWPOINT TEMPERATURE.
      RH  - RELATIVE HUMIDITY.  PRES - PRESSURE.
      HX  - HEAT INDEX.         WCI  - WIND CHILL INDEX.
$




USA.gov is the U.S. government's official web portal to all federal, state and local government web resources and services.